Temperature
18 18 18 18 18 18 18 18 18 18 18 18 18 18 18 18 18 18 18 18 18 18 18 18 17 17 17 17 18 17 17 17 17 18 17 17 17 18 18 18 18 18 17
18 18 18 18 18 18 18 18 18 18 18 18 18 18 18 18 18 18 18 18 18 18 18 17 17 17 17 17 17 17 17 17 17 17 17 17 17 17 17 17 17 17 17
18 18 18 18 18 18 18 18 18 18 18 18 18 18 18 18 18 18 18 18 18 17 17 17 17 17 17 17 17 17 17 17 17 17 17 17 17 17 17 17 17 17 17
18 18 18 18 18 18 18 18 18 18 18 18 18 17 18 18 18 18 17 17 17 17 17 17 17 17 17 17 17 17 17 17 17 17 17 17 17 17 17 17 17 17 17
18 18 18 18 18 18 18 18 18 18 18 18 17 17 17 17 17 17 17 17 17 17 17 17 17 17 17 17 17 17 17 17 17 17 17 17 17 17 17 17 17 17 17
18 18 18 18 18 17 17 18 18 18 18 17 17 17 17 17 17 17 17 17 17 17 17 17 17 17 17 17 17 17 17 17 17 17 17 17 17 17 17 17 17 17 17
18 18 18 18 18 17 17 17 17 17 17 17 17 17 17 17 17 17 17 17 17 17 17 17 17 17 17 17 17 17 17 17 17 17 16 16 16 16 16 16 16 17 17
18 18 18 17 17 17 17 17 17 17 17 17 17 17 17 17 17 17 17 17 17 17 17 17 17 17 16 16 16 16 16 16 16 16 16 16 16 16 16 16 16 16 16
17 17 17 17 17 17 17 17 17 17 17 17 17 17 17 17 17 17 17 16 16 16 16 16 16 16 16 16 16 16 16 16 16 16 16 16 16 16 16 16 16 16 16
17 17 17 17 17 17 17 17 17 17 17 17 17 17 17 17 17 17 16 16 16 16 16 16 16 16 16 16 16 16 16 16 16 16 16 16 16 16 16 16 16 16 16
17 17 17 17 17 17 17 17 17 17 17 17 17 17 17 17 16 16 16 16 16 16 16 16 16 16 16 16 16 16 16 16 16 16 16 16 16 16 16 16 15 15 15
17 17 17 17 17 17 17 17 17 17 17 17 17 17 16 16 16 16 16 16 16 16 16 16 16 16 16 16 16 16 16 16 16 16 16 16 16 16 15 15 15 15 15
18 17 17 17 17 17 17 17 17 17 17 17 17 17 16 16 16 16 16 16 16 16 16 16 16 16 16 16 16 15 15 15 15 15 15 15 15 15 15 15 15 15 15
18 18 17 17 17 17 17 17 17 17 17 17 17 17 16 16 16 16 16 16 16 16 16 16 16 16 16 15 15 15 15 15 15 15 15 15 15 15 15 15 15 15 15
18 18 17 17 17 17 17 17 17 17 17 17 17 17 16 16 16 16 16 16 16 16 16 16 16 16 15 15 15 15 15 15 15 15 15 15 15 15 15 14 14 14 14
18 18 17 17 17 17 17 17 17 17 16 16 16 16 16 16 16 16 16 16 16 16 16 16 15 15 15 15 15 15 15 15 15 15 15 15 14 14 14 14 14 14 14
18 18 17 17 17 17 17 17 16 16 16 16 16 16 16 16 16 16 16 16 16 16 15 15 15 15 15 15 15 15 15 15 14 14 14 14 14 14 14 14 14 14 14
18 18 18 17 17 17 17 17 16 16 16 16 16 16 16 16 16 16 16 16 15 15 15 15 15 15 15 15 14 14 14 14 14 14 14 14 14 14 14 14 14 14 14
18 18 17 17 17 17 17 17 16 16 16 16 16 16 16 16 16 16 16 15 15 15 15 15 15 15 15 14 14 14 14 14 14 14 14 14 14 14 14 14 14 14 14
18 17 17 17 17 17 17 16 16 16 16 16 16 16 16 16 16 16 16 15 15 15 15 15 15 15 15 14 14 14 14 14 14 14 14 14 14 14 14 14 14 13 13
18 17 17 17 17 17 16 16 16 16 16 16 16 16 16 16 16 16 15 15 15 15 15 15 15 14 14 14 14 14 14 14 14 13 13 14 13 13 13 13 13 13 13
18 17 17 17 17 16 16 16 16 16 16 16 16 16 16 16 16 15 15 15 15 15 15 15 14 14 14 14 14 14 13 13 13 13 13 13 13 13 13 13 13 13 13
17 17 17 17 17 16 16 16 16 16 16 16 16 16 16 15 15 15 15 15 15 15 15 14 14 14 14 14 14 14 13 13 13 13 13 13 13 13 13 13 13 13 13
17 17 17 17 17 16 16 16 16 16 16 16 16 16 16 15 15 15 15 15 15 15 14 14 14 14 14 14 14 14 14 13 13 13 13 13 13 13 13 13 13 12 12
17 17 17 17 16 16 16 16 16 16 16 16 16 16 15 15 15 15 15 15 15 15 14 14 14 14 14 14 14 14 14 13 13 13 12 12 12 12 12 12 12 12 12
17 17 17 17 16 16 16 16 16 16 16 16 16 16 15 15 15 15 15 15 15 15 14 14 14 14 14 14 14 14 14 14 13 13 13 12 12 12 12 12 12 12 12
Wind_Speed
1 1 2 4 6 7 8 8 8 9 10 10 10 10 10 11 10 11 11 11 11 11 11 10 10 10 10 10 10 9 9 10 10 10 10 9 9 9 8 8 8 7 8
2 2 4 5 6 7 8 8 8 9 9 9 10 10 10 10 10 10 10 10 10 10 10 10 10 10 10 9 9 9 9 10 10 10 9 9 9 9 8 7 7 6 7
3 3 4 5 6 7 7 8 8 8 8 9 9 9 9 10 10 10 10 10 10 10 10 10 10 10 10 9 9 9 10 10 10 10 9 8 8 9 8 8 8 8 8
4 4 4 5 7 7 7 8 8 8 8 8 9 9 9 9 9 9 10 10 10 9 9 10 9 10 10 10 9 10 11 11 11 10 8 8 7 8 9 8 8 8 8
4 4 4 6 7 7 7 7 8 8 8 8 8 8 8 8 9 9 9 9 9 9 9 9 9 9 9 10 10 11 11 11 11 10 9 8 7 8 9 9 9 9 8
4 4 4 6 7 7 8 8 8 8 8 8 8 8 8 8 8 8 9 9 9 9 9 9 9 9 10 10 10 11 11 11 10 9 8 7 7 8 8 8 8 8 8
3 3 4 5 6 7 7 7 7 8 7 8 7 7 7 7 8 8 8 9 9 9 9 9 9 10 10 10 11 11 11 10 10 8 7 7 7 8 8 8 8 8 8
3 3 3 4 5 6 6 6 6 7 7 7 7 7 7 7 7 7 8 9 9 9 10 10 9 10 10 10 10 11 10 10 9 8 7 6 7 8 8 8 8 8 8
4 3 3 3 3 4 5 5 5 5 6 6 6 6 6 6 6 6 7 8 9 9 10 10 10 10 10 10 11 11 11 11 9 7 7 6 7 8 8 8 8 8 9
3 3 3 3 3 3 2 3 4 4 5 5 5 5 5 5 5 6 7 7 8 9 10 10 11 11 11 11 11 12 11 10 9 7 6 6 8 9 9 8 8 9 9
1 1 1 1 2 2 2 2 3 3 4 4 3 4 5 5 5 5 5 6 7 8 9 10 11 11 12 12 12 12 10 9 8 7 6 7 9 9 9 9 9 8 9
2 2 1 1 0 0 1 2 2 2 3 3 3 3 4 5 5 5 5 6 7 8 9 10 11 11 11 10 11 11 9 9 8 7 7 9 9 9 9 9 9 9 9
2 2 2 2 1 1 1 1 1 1 2 2 2 2 3 4 4 5 5 5 7 8 8 9 10 9 9 8 8 9 9 8 7 7 8 9 9 9 9 9 9 9 9
2 2 2 2 2 2 1 1 1 1 1 1 1 2 3 2 3 3 4 4 5 6 7 7 7 9 9 9 8 8 8 8 8 8 9 10 9 10 10 10 10 10 10
3 3 2 2 3 3 2 1 1 1 1 1 1 2 3 2 2 3 3 4 5 6 6 6 6 7 7 7 8 8 7 8 8 9 9 11 11 10 10 11 10 10 9
3 3 2 3 3 3 2 2 1 2 2 2 2 3 3 4 3 3 3 3 4 6 6 6 6 6 5 6 6 7 7 7 8 9 9 9 12 12 11 10 10 10 10
3 3 2 3 2 2 3 3 2 2 2 2 2 3 4 5 5 5 3 3 4 6 7 7 6 6 5 5 5 6 6 7 7 8 8 9 10 11 11 11 11 11 10
3 2 2 2 3 3 2 2 2 2 2 2 3 3 4 4 6 5 4 3 5 6 6 5 4 4 4 4 4 4 5 6 7 7 8 9 9 9 11 12 11 11 11
3 3 2 1 2 3 2 2 2 2 2 2 3 3 3 5 6 6 4 4 6 5 4 4 3 4 4 4 4 4 4 4 5 6 7 8 8 9 9 10 12 12 11
3 3 3 2 2 2 2 2 2 2 1 1 2 2 4 4 6 6 5 4 5 4 4 4 4 4 3 4 5 5 4 4 5 5 5 6 8 8 9 9 10 10 12
2 2 2 3 2 2 2 2 2 1 0 0 1 2 3 5 6 6 4 4 4 4 4 5 4 5 3 3 4 4 4 5 5 4 5 5 6 7 9 9 9 9 9
3 3 2 3 2 2 2 2 2 2 1 1 1 2 2 4 5 5 5 4 4 4 4 4 4 3 2 2 3 2 2 4 4 5 4 4 4 6 6 7 8 8 8
3 4 4 3 3 2 2 2 3 2 2 1 1 0 1 3 4 5 5 5 4 4 4 4 4 4 3 1 1 3 2 1 1 3 3 4 4 4 4 6 7 7 7
4 4 3 3 3 3 3 4 5 4 2 2 1 1 1 2 3 4 5 5 4 4 4 3 3 3 4 2 0 1 2 3 2 1 2 3 3 3 4 4 5 6 6
3 3 3 4 3 3 3 4 5 3 2 2 1 2 1 1 2 3 4 4 4 4 4 3 3 2 2 3 2 1 2 2 2 2 1 2 2 2 2 3 4 4 5
1 2 2 3 3 3 3 4 4 4 3 3 2 2 1 1 1 2 4 4 3 3 4 3 3 3 2 2 2 2 2 2 2 2 2 1 1 2 2 3 3 4 4
Wind_Direction
266 267 142 120 116 113 112 108 106 105 105 103 101 99 100 99 96 94 91 89 84 81 81 80 80 83 80 80 78 78 81 83 82 80 78 78 78 79 80 84 86 87 94
184 179 139 120 116 110 112 112 110 108 107 104 102 100 100 100 98 95 93 89 86 84 80 77 76 78 78 77 76 78 81 82 81 78 74 70 72 74 74 77 87 91 93
129 137 136 127 122 113 111 109 110 110 108 106 103 102 100 99 98 95 94 91 87 83 80 79 76 78 78 79 79 81 83 81 80 75 69 58 61 70 73 73 81 85 88
122 120 128 129 125 117 114 110 108 109 110 109 106 103 102 102 98 95 93 90 88 83 79 77 75 78 77 77 79 82 82 79 78 74 63 57 59 70 70 72 77 80 83
108 112 129 133 128 123 118 114 110 111 113 112 108 104 103 101 97 94 92 89 85 82 81 78 76 75 75 77 81 82 79 77 75 68 60 58 59 69 68 69 74 75 80
105 110 127 135 134 132 129 124 118 114 115 112 108 103 101 99 97 93 90 87 82 80 80 79 77 74 78 80 81 81 79 77 72 65 60 57 59 66 67 67 70 72 76
106 105 118 126 131 132 129 124 123 121 120 115 109 106 100 97 95 92 87 83 79 79 81 81 79 77 80 82 80 79 79 79 71 64 58 56 61 66 68 68 68 70 70
106 94 104 122 126 124 125 123 121 124 124 118 113 110 106 100 94 90 85 81 77 76 80 80 81 78 78 80 80 78 78 76 69 61 55 57 66 69 68 70 70 69 71
91 85 67 74 96 111 120 121 119 118 119 118 116 110 104 97 93 89 86 82 78 77 78 77 79 77 76 77 78 76 74 70 63 54 54 55 67 71 69 68 68 69 69
79 71 59 48 58 61 77 115 116 112 106 107 109 106 98 87 82 77 78 80 81 79 78 78 80 79 76 77 76 72 67 61 57 53 51 63 68 71 69 68 70 69 68
123 79 81 50 43 47 49 86 93 100 94 83 78 81 76 67 64 65 76 78 81 78 78 77 78 79 76 75 72 69 64 59 53 47 51 64 69 70 68 67 69 69 71
195 206 180 172 176 68 83 62 50 68 75 68 62 65 67 71 67 63 68 75 77 77 76 76 77 77 72 68 67 66 62 56 48 42 50 60 65 66 65 64 66 69 71
206 216 195 184 171 155 152 94 58 66 62 57 63 71 78 73 68 62 62 62 69 73 72 73 71 74 73 72 68 63 59 55 47 43 43 53 60 65 65 65 65 68 70
192 219 213 177 170 184 187 160 158 130 82 58 68 99 99 84 75 75 73 73 77 79 79 75 77 77 75 71 70 66 58 54 48 42 41 48 58 64 64 66 65 67 67
198 216 214 190 189 188 181 186 172 175 162 144 117 128 127 113 104 94 84 82 82 87 90 84 81 80 74 69 69 69 61 56 50 44 37 45 54 61 62 63 63 66 68
210 213 207 206 198 179 180 189 202 186 169 149 147 151 143 139 132 115 98 89 87 95 97 93 88 86 78 75 67 64 61 58 52 47 40 41 47 54 59 62 62 63 66
208 204 204 200 178 181 187 192 185 178 165 147 156 151 150 149 140 128 118 105 104 107 103 97 88 85 82 74 60 57 60 56 52 48 46 43 40 43 48 55 59 60 63
195 191 204 197 169 180 177 172 165 143 140 145 148 146 147 153 146 132 124 118 119 113 109 104 96 89 79 73 62 49 50 53 51 51 52 48 43 39 40 45 50 54 57
184 179 179 172 160 166 157 132 126 121 131 147 142 135 141 144 145 135 133 131 126 115 109 113 99 103 99 86 76 60 48 46 48 52 51 48 46 43 39 37 41 44 47
166 165 155 146 144 137 114 97 89 86 85 107 127 134 138 137 138 134 133 128 124 111 103 110 107 94 100 97 84 64 47 44 51 48 46 47 46 44 42 39 36 36 39
151 149 152 154 149 132 119 130 137 147 162 118 138 136 142 141 141 138 135 128 125 125 130 126 115 102 92 98 84 57 38 44 50 42 41 48 44 41 44 42 40 38 34
178 176 167 172 163 165 155 153 148 143 146 165 117 93 126 140 146 149 140 141 137 129 126 129 124 119 122 98 101 90 39 17 23 32 35 46 38 41 41 40 41 39 37
195 194 187 182 177 177 155 128 109 80 64 65 77 97 100 137 145 145 145 141 143 143 151 156 148 140 152 128 104 129 129 178 346 2 24 37 33 33 30 35 38 34 35
213 199 180 172 177 181 163 155 153 160 169 193 189 180 134 134 144 147 144 144 146 146 152 164 153 152 149 165 113 72 133 149 145 12 352 7 28 32 20 30 31 30 33
199 190 174 165 180 179 167 165 159 160 170 151 137 127 115 129 141 148 149 146 150 157 162 163 153 159 159 165 160 140 103 86 118 147 223 336 7 11 15 19 29 31 33
169 155 154 167 186 174 165 158 160 160 150 141 162 165 169 153 151 150 147 150 156 158 167 175 170 170 169 163 161 158 162 161 168 158 176 208 320 336 3 14 22 25 30
Height
1527 1527 1527 1528 1528 1528 1529 1529 1529 1529 1529 1529 1529 1530 1530 1530 1530 1530 1530 1530 1531 1531 1531 1531 1531 1531 1532 1532 1532 1532 1532 1532 1532 1533 1533 1533 1533 1534 1534 1534 1534 1534 1534
1527 1528 1528 1528 1529 1529 1529 1530 1530 1530 1530 1530 1531 1531 1531 1531 1531 1532 1532 1532 1532 1532 1532 1532 1533 1533 1533 1533 1533 1533 1533 1534 1534 1534 1534 1534 1534 1535 1535 1535 1535 1535 1535
1528 1528 1529 1529 1530 1530 1530 1530 1530 1531 1531 1531 1532 1532 1533 1533 1533 1533 1533 1533 1533 1534 1534 1534 1534 1534 1534 1534 1534 1535 1535 1535 1535 1535 1535 1535 1535 1536 1536 1536 1536 1536 1536
1529 1529 1530 1530 1531 1531 1531 1531 1531 1532 1532 1533 1533 1534 1534 1534 1535 1535 1535 1535 1535 1535 1535 1535 1535 1535 1535 1536 1536 1536 1536 1536 1536 1536 1536 1536 1536 1536 1536 1536 1536 1536 1536
1529 1530 1530 1531 1531 1531 1532 1532 1532 1532 1533 1534 1534 1535 1535 1536 1536 1536 1536 1536 1536 1536 1536 1536 1537 1537 1537 1537 1537 1537 1537 1537 1537 1537 1537 1537 1537 1537 1537 1537 1537 1537 1537
1530 1531 1531 1532 1532 1532 1533 1533 1533 1534 1534 1535 1535 1536 1537 1537 1537 1537 1537 1537 1537 1537 1538 1538 1538 1538 1538 1538 1538 1538 1538 1538 1538 1538 1538 1538 1538 1538 1538 1538 1538 1538 1538
1531 1532 1532 1533 1533 1534 1534 1534 1535 1535 1536 1536 1537 1537 1538 1538 1538 1538 1539 1539 1539 1539 1539 1539 1539 1539 1540 1540 1540 1540 1540 1539 1539 1539 1539 1539 1539 1539 1539 1539 1538 1538 1538
1533 1533 1533 1534 1534 1535 1535 1535 1536 1536 1537 1538 1538 1539 1539 1539 1539 1540 1540 1540 1540 1540 1540 1540 1541 1541 1541 1541 1541 1541 1541 1540 1540 1540 1540 1540 1540 1539 1539 1539 1539 1539 1539
1534 1535 1535 1535 1535 1536 1536 1537 1537 1538 1538 1539 1539 1540 1540 1540 1541 1541 1541 1541 1542 1542 1542 1542 1542 1542 1542 1542 1542 1542 1542 1542 1541 1541 1541 1540 1540 1540 1540 1540 1539 1539 1539
1536 1536 1536 1536 1537 1537 1538 1538 1539 1539 1540 1540 1541 1541 1541 1541 1542 1542 1543 1543 1543 1543 1543 1543 1544 1544 1544 1544 1544 1543 1543 1543 1543 1542 1542 1541 1541 1541 1540 1540 1540 1540 1540
1536 1537 1537 1537 1538 1538 1539 1539 1540 1540 1541 1541 1542 1542 1542 1543 1543 1543 1544 1544 1544 1544 1545 1545 1545 1545 1545 1545 1545 1545 1545 1544 1544 1543 1543 1543 1542 1542 1541 1541 1541 1540 1540
1537 1538 1538 1538 1539 1539 1540 1541 1541 1541 1542 1543 1543 1543 1544 1544 1544 1545 1545 1545 1545 1546 1546 1546 1546 1546 1547 1546 1546 1546 1546 1546 1545 1545 1544 1544 1543 1543 1542 1542 1542 1541 1541
1538 1538 1538 1539 1540 1540 1541 1541 1542 1542 1543 1543 1544 1544 1545 1545 1545 1546 1546 1546 1547 1547 1547 1547 1547 1547 1548 1548 1548 1547 1547 1547 1546 1546 1545 1545 1544 1544 1543 1543 1542 1542 1542
1538 1538 1539 1539 1540 1540 1541 1542 1542 1543 1544 1544 1545 1545 1545 1546 1546 1546 1547 1547 1548 1548 1548 1548 1548 1548 1549 1549 1549 1549 1548 1548 1548 1547 1546 1546 1545 1545 1544 1544 1543 1543 1543
1538 1538 1539 1539 1540 1541 1541 1542 1542 1543 1544 1545 1545 1545 1546 1546 1546 1547 1547 1547 1548 1549 1549 1549 1549 1549 1549 1549 1549 1549 1549 1549 1549 1548 1547 1547 1546 1546 1545 1544 1544 1544 1544
1537 1538 1539 1539 1540 1541 1541 1542 1542 1543 1544 1545 1545 1546 1546 1546 1547 1547 1548 1548 1549 1549 1550 1550 1550 1550 1550 1550 1550 1550 1550 1550 1549 1549 1549 1548 1548 1547 1547 1546 1545 1545 1545
1537 1538 1538 1539 1540 1540 1541 1541 1542 1543 1544 1545 1545 1546 1546 1547 1547 1548 1548 1549 1550 1550 1550 1550 1551 1551 1551 1551 1551 1551 1551 1551 1550 1550 1550 1549 1549 1548 1548 1547 1547 1547 1546
1537 1537 1538 1539 1539 1540 1540 1541 1542 1542 1543 1544 1545 1546 1546 1547 1547 1548 1549 1549 1550 1550 1551 1551 1551 1551 1551 1551 1551 1551 1552 1552 1551 1551 1551 1551 1550 1550 1549 1549 1548 1548 1548
1536 1537 1537 1538 1538 1539 1539 1540 1541 1542 1543 1544 1544 1545 1546 1547 1547 1548 1549 1549 1550 1551 1551 1552 1552 1552 1552 1552 1552 1552 1552 1552 1552 1552 1552 1552 1551 1551 1551 1550 1550 1549 1549
1535 1536 1537 1537 1538 1538 1539 1540 1540 1541 1542 1543 1544 1544 1545 1546 1547 1548 1549 1549 1550 1551 1551 1552 1552 1552 1552 1552 1552 1552 1552 1553 1553 1553 1553 1553 1553 1552 1552 1551 1551 1550 1549
1534 1535 1536 1536 1537 1537 1538 1539 1540 1541 1542 1543 1543 1544 1545 1546 1546 1547 1548 1549 1550 1551 1551 1552 1552 1553 1553 1553 1553 1553 1553 1553 1554 1554 1554 1554 1554 1553 1553 1552 1552 1551 1550
1533 1534 1535 1535 1536 1537 1537 1538 1539 1540 1541 1542 1543 1544 1545 1545 1546 1547 1548 1549 1550 1550 1551 1552 1552 1553 1553 1553 1553 1553 1554 1555 1554 1555 1555 1554 1554 1554 1553 1553 1552 1551 1551
1532 1532 1533 1534 1535 1536 1537 1538 1539 1540 1541 1542 1543 1543 1544 1545 1546 1546 1547 1548 1549 1550 1551 1552 1553 1553 1553 1554 1554 1554 1554 1554 1555 1555 1555 1555 1555 1554 1554 1553 1553 1552 1551
1530 1531 1532 1533 1534 1535 1536 1537 1538 1539 1540 1541 1542 1543 1544 1544 1545 1546 1547 1548 1549 1550 1551 1551 1552 1553 1553 1553 1554 1554 1555 1554 1554 1555 1555 1555 1555 1554 1554 1553 1553 1552 1551
1529 1530 1531 1533 1533 1534 1535 1536 1537 1538 1539 1540 1541 1542 1543 1544 1545 1545 1547 1547 1548 1549 1550 1551 1552 1552 1553 1553 1553 1553 1553 1554 1554 1554 1554 1554 1554 1554 1553 1553 1552 1552 1551
1527 1529 1530 1531 1533 1534 1535 1536 1537 1538 1539 1540 1541 1541 1542 1543 1544 1545 1546 1547 1548 1549 1549 1550 1551 1551 1552 1552 1552 1553 1553 1553 1553 1553 1552 1553 1553 1553 1553 1552 1552 1551 1551